DW8824 Weather Reports


Display with metric or nautical units.
time (UTC)temp
F
wind
direction
speed
MPH
gust
MPH
rain 1hr
in
rain 24hr
in
rain mn
in
humidity
%
barometer
mb
20260504004404 73 147 3.0 9.0 0.00 0.00 0.00 77 1015.6
20260504003904 73 166 2.0 8.0 0.00 0.00 0.00 78 1015.6
20260504003404 73 144 2.0 6.0 0.00 0.00 0.00 79 1015.7
20260504002905 73 172 2.0 8.0 0.00 0.00 0.00 79 1015.7
20260504002404 73 169 0.0 5.0 0.00 0.00 0.00 80 1015.7
20260504001904 73 154 1.0 6.0 0.00 0.00 0.00 80 1015.7
20260504001404 73 154 0.0 5.0 0.00 0.00 0.00 81 1015.7
20260504000904 73 141 1.0 5.0 0.00 0.00 0.00 81 1015.7
20260504000404 73 167 0.0 3.0 0.00 0.00 0.00 81 1015.7
20260503235904 73 167 0.0 3.0 0.00 0.00 0.00 81 1015.8
20260503235404 73 121 1.0 3.0 0.00 0.00 0.00 82 1015.7
20260503234904 72 156 0.0 5.0 0.00 0.00 0.00 83 1015.7
20260503234404 72 168 0.0 3.0 0.00 0.00 0.00 83 1015.7
20260503233904 72 171 1.0 3.0 0.00 0.00 0.00 83 1015.8
20260503232904 72 174 1.0 5.0 0.00 0.00 0.00 83 1015.9
20260503232404 73 162 0.0 0.0 0.00 0.00 0.00 83 1015.9
20260503231904 72 152 0.0 5.0 0.00 0.00 0.00 83 1015.9
20260503231404 72 166 0.0 5.0 0.00 0.00 0.00 84 1015.9
20260503230904 72 160 1.0 5.0 0.00 0.00 0.00 84 1015.9
20260503230404 72 164 0.0 0.0 0.00 0.00 0.00 84 1015.9
20260503225905 72 165 0.0 1.0 0.00 0.00 0.00 84 1016.0
20260503225404 72 174 0.0 0.0 0.00 0.00 0.00 84 1016.0
20260503224904 72 181 0.0 0.0 0.00 0.00 0.00 84 1016.1
20260503223904 72 195 0.0 0.0 0.00 0.00 0.00 84 1016.1
20260503223403 72 173 0.0 0.0 0.00 0.00 0.00 84 1016.1
20260503222904 72 173 0.0 0.0 0.00 0.00 0.00 84 1016.2
20260503222404 72 173 0.0 0.0 0.00 0.00 0.00 84 1016.2
20260503221904 72 173 0.0 0.0 0.00 0.00 0.00 84 1016.2
20260503221405 72 178 0.0 3.0 0.00 0.00 0.00 84 1016.2
20260503220904 72 181 0.0 3.0 0.00 0.00 0.00 84 1016.3
20260503220403 72 182 0.0 3.0 0.00 0.00 0.00 83 1016.4
20260503215904 73 191 0.0 0.0 0.00 0.00 0.00 83 1016.4
20260503215404 73 191 0.0 0.0 0.00 0.00 0.00 83 1016.4
20260503214904 73 191 0.0 0.0 0.00 0.00 0.00 83 1016.4
20260503214404 73 191 0.0 0.0 0.00 0.00 0.00 83 1016.5
20260503213903 73 192 0.0 0.0 0.00 0.00 0.00 83 1016.5
20260503213404 73 192 0.0 0.0 0.00 0.00 0.00 83 1016.7
20260503212904 73 192 0.0 0.0 0.00 0.00 0.00 82 1016.7
20260503212404 73 192 0.0 0.0 0.00 0.00 0.00 82 1016.7
20260503211905 73 192 0.0 1.0 0.00 0.00 0.00 82 1016.8
20260503211404 73 192 0.0 0.0 0.00 0.00 0.00 82 1016.8
20260503210904 73 192 0.0 0.0 0.00 0.00 0.00 82 1016.8
20260503210404 73 192 0.0 0.0 0.00 0.00 0.00 82 1016.9
20260503205404 72 192 0.0 0.0 0.00 0.00 0.00 83 1017.0
20260503204904 72 193 0.0 0.0 0.00 0.00 0.00 83 1017.0
20260503204405 72 193 0.0 0.0 0.00 0.00 0.00 83 1017.0
20260503203404 72 192 0.0 0.0 0.00 0.00 0.00 83 1017.1
20260503202904 72 193 0.0 0.0 0.00 0.00 0.00 82 1017.2
20260503202405 72 192 0.0 0.0 0.00 0.00 0.00 82 1017.2
20260503201904 73 192 0.0 0.0 0.00 0.00 0.00 82 1017.2
20260503201404 72 193 0.0 0.0 0.00 0.00 0.00 82 1017.2
20260503200904 72 192 0.0 1.0 0.00 0.00 0.00 82 1017.3
20260503200404 72 193 0.0 1.0 0.00 0.00 0.00 82 1017.3
20260503195404 72 192 0.0 2.0 0.00 0.00 0.00 82 1017.4
20260503194904 72 185 0.0 0.0 0.00 0.00 0.00 82 1017.3
20260503194404 72 181 0.0 1.0 0.00 0.00 0.00 82 1017.4
20260503193404 72 188 0.0 0.0 0.00 0.00 0.00 82 1017.4
20260503192904 72 188 0.0 0.0 0.00 0.00 0.00 81 1017.4
20260503192404 73 199 0.0 0.0 0.00 0.00 0.00 80 1017.4
20260503191404 74 173 0.0 0.0 0.00 0.00 0.00 79 1017.5
20260503190904 74 172 0.0 3.0 0.00 0.00 0.00 79 1017.5
20260503190404 74 155 2.0 6.0 0.00 0.00 0.00 79 1017.5
20260503185404 73 170 1.0 6.0 0.00 0.00 0.00 80 1017.4
20260503184904 73 163 0.0 2.0 0.00 0.00 0.00 80 1017.5
20260503184404 73 189 0.0 5.0 0.00 0.00 0.00 80 1017.5
20260503183904 73 184 0.0 1.0 0.00 0.00 0.00 80 1017.4
20260503183404 73 179 1.0 5.0 0.00 0.00 0.00 80 1017.5
20260503182904 72 170 0.0 3.0 0.00 0.00 0.00 80 1017.4
20260503182404 72 157 0.0 0.0 0.00 0.00 0.00 80 1017.5
20260503181904 72 162 0.0 0.0 0.00 0.00 0.00 80 1017.5
20260503181404 72 150 0.0 1.0 0.00 0.00 0.00 80 1017.4
20260503180905 72 187 0.0 3.0 0.00 0.00 0.00 80 1017.5
20260503180404 72 172 0.0 1.0 0.00 0.00 0.00 80 1017.6
20260503175904 72 163 1.0 5.0 0.00 0.00 0.00 80 1017.5
20260503175404 72 179 0.0 3.0 0.00 0.00 0.00 80 1017.5
20260503174904 72 171 0.0 5.0 0.00 0.00 0.00 80 1017.5
20260503174404 72 178 0.0 3.0 0.00 0.00 0.00 80 1017.5
20260503173905 72 155 0.0 1.0 0.00 0.00 0.00 80 1017.5
20260503172404 72 165 0.0 7.0 0.00 0.00 0.00 79 1017.5
20260503171904 72 157 0.0 6.0 0.00 0.00 0.00 79 1017.5
20260503171404 72 184 1.0 6.0 0.00 0.00 0.00 79 1017.5
20260503170904 72 159 2.0 6.0 0.00 0.00 0.00 79 1017.4
20260503170404 72 168 0.0 3.0 0.00 0.00 0.00 78 1017.5
20260503150904 74 144 1.0 3.0 0.00 0.00 0.00 77 1016.6
20260503150405 74 166 0.0 5.0 0.00 0.00 0.00 77 1016.5
20260503131404 78 138 0.0 7.0 0.00 0.01 0.00 70 1015.4
20260503130904 78 7 2.0 9.0 0.00 0.01 0.00 70 1015.3
20260503130403 78 117 0.0 8.0 0.00 0.01 0.00 69 1015.3
20260503110405 80 126 2.0 12.0 0.00 0.08 0.00 68 1015.3
20260503081404 82 118 1.0 12.0 0.00 0.14 0.00 70 1016.8
20260503080903 82 61 6.0 16.0 0.00 0.14 0.00 70 1017.0
20260503080404 82 85 5.0 12.0 0.00 0.14 0.00 70 1017.1
20260503072904 81 142 7.0 14.0 0.00 0.14 0.00 71 1017.3
20260503072404 81 72 5.0 17.0 0.00 0.14 0.00 71 1017.4
20260503071904 82 85 3.0 16.0 0.00 0.14 0.00 71 1017.4
20260503071404 82 75 7.0 13.0 0.00 0.14 0.00 70 1017.5
20260503070904 82 84 7.0 13.0 0.00 0.14 0.00 69 1017.5
20260503070404 82 99 5.0 12.0 0.00 0.14 0.00 69 1017.6
20260503054404 81 153 3.0 9.0 0.00 0.14 0.00 71 1018.1
20260503053904 81 128 3.0 12.0 0.00 0.14 0.00 71 1018.1
20260503053404 81 125 3.0 10.0 0.00 0.14 0.00 72 1018.0
20260503052904 81 108 3.0 8.0 0.00 0.14 0.00 72 1018.1
20260503052404 80 92 3.0 10.0 0.00 0.14 0.00 72 1018.2
20260503051904 80 95 4.0 10.0 0.00 0.14 0.00 73 1018.1
20260503051403 80 102 6.0 12.0 0.00 0.14 0.00 73 1018.1
20260503050904 80 120 3.0 12.0 0.00 0.14 0.00 73 1018.1
20260503045904 79 121 3.0 8.0 0.00 0.14 0.00 74 1018.0
20260503045404 79 95 3.0 9.0 0.00 0.14 0.00 74 1017.9
20260503044904 79 129 5.0 12.0 0.00 0.16 0.00 74 1017.9
20260503044404 79 108 5.0 10.0 0.00 0.17 0.00 74 1017.9
20260503043904 78 122 3.0 10.0 0.00 0.17 0.00 75 1017.8
20260503043403 78 149 3.0 9.0 0.00 0.17 0.00 75 1017.7
20260503042904 78 151 1.0 8.0 0.00 0.17 0.00 75 1017.7
20260503042404 78 131 5.0 9.0 0.00 0.17 0.00 75 1017.6
20260503041904 78 117 0.0 5.0 0.00 0.17 0.00 76 1017.6
20260503040904 77 130 1.0 8.0 0.00 0.17 0.00 77 1017.5
20260503040404 76 155 0.0 5.0 0.00 0.17 0.00 78 1017.4
20260503035904 76 156 2.0 6.0 0.00 0.17 0.00 78 1017.4
20260503035404 75 134 0.0 1.0 0.00 0.17 0.00 79 1017.3
20260503034904 75 131 1.0 5.0 0.00 0.17 0.00 80 1017.4
20260503034405 75 165 0.0 3.0 0.00 0.17 0.00 81 1017.3
20260503033904 74 176 1.0 6.0 0.00 0.17 0.00 81 1017.3
20260503033404 74 166 0.0 6.0 0.00 0.17 0.00 81 1017.3
20260503032904 73 173 1.0 6.0 0.00 0.17 0.00 82 1017.2
20260503032404 73 182 1.0 5.0 0.00 0.17 0.00 82 1017.1
20260503031904 72 160 0.0 3.0 0.00 0.17 0.00 83 1017.1
20260503030904 72 174 0.0 3.0 0.00 0.17 0.00 83 1017.1
20260503030404 72 172 0.0 1.0 0.00 0.17 0.00 83 1017.0
20260503025904 72 173 0.0 3.0 0.00 0.17 0.00 83 1017.0
20260503025404 72 160 0.0 5.0 0.00 0.17 0.00 83 1017.0
20260503024904 72 158 1.0 5.0 0.00 0.17 0.00 84 1016.8
20260503023904 71 150 1.0 3.0 0.00 0.17 0.00 84 1016.8
20260503023403 71 143 0.0 1.0 0.00 0.17 0.00 84 1016.7
20260503022404 71 173 1.0 5.0 0.00 0.17 0.00 84 1016.5
20260503021905 71 153 0.0 0.0 0.00 0.17 0.00 84 1016.5
20260503020904 71 7 0.0 0.0 0.00 0.17 0.00 84 1016.3
20260503020404 71 0 0.0 3.0 0.00 0.17 0.00 84 1016.2
20260503015904 71 170 1.0 7.0 0.00 0.17 0.00 85 1016.2
20260503015404 71 142 1.0 5.0 0.00 0.17 0.00 85 1016.2
20260503014904 71 133 1.0 5.0 0.00 0.17 0.00 85 1016.2
20260503013404 71 160 0.0 2.0 0.00 0.17 0.00 85 1016.1
20260503012904 71 168 1.0 5.0 0.00 0.17 0.00 85 1016.1
20260503012404 71 148 0.0 2.0 0.00 0.17 0.00 85 1016.1
20260503011405 72 175 0.0 2.0 0.00 0.17 0.00 85 1016.1
20260503010904 72 166 0.0 1.0 0.00 0.17 0.00 85 1016.1
20260503010405 72 124 0.0 0.0 0.00 0.17 0.00 85 1016.1
20260503005904 72 138 0.0 0.0 0.00 0.17 0.00 84 1016.1
20260503005404 72 109 0.0 0.0 0.00 0.17 0.00 84 1016.0
20260503004904 72 136 0.0 3.0 0.00 0.17 0.00 84 1016.0